Camp Douglas, WI

6:19 PM CST on February 24, 2017 (GMT -0600)
Volk

Weather History for KVOK - October, 2012

Change the Weather History Date:

Friday, October 26, 2012

  Actual Average Record
Temperature  
Mean Temperature 36 °F -  
Max Temperature 44 °F 51 °F 73 °F (1998)
Min Temperature 28 °F 37 °F 26 °F (2007)
Degree Days  
Heating Degree Days 29    
Moisture  
Dew Point 25 °F    
Average Humidity 66    
Maximum Humidity 83    
Minimum Humidity 49    
Precipitation  
Precipitation 0.00 in - - ()
Sea Level Pressure  
Sea Level Pressure 30.30 in    
Wind  
Wind Speed 9 mph (WNW)    
Max Wind Speed 15 mph    
Max Gust Speed 20 mph    
Visibility 10 miles    
Events      
Averages and records for this station are not official NWS values.
T = Trace of Precipitation, MM = Missing Value Source: NWS Daily Summary

Daily Weather History Graph

Daily Weather History Graph

Search for Another Location

Airport or City:

Trip Planner

Search our weather history database for the weather conditions in past years. The results will help you decide how hot, cold, wet, or windy it might be!

Date:

Astronomy

Oct. 26, 2012 Rise Set
Actual Time 7:30 AM CDT 5:59 PM CDT
Civil Twilight 7:00 AM CDT 6:28 PM CDT
Nautical Twilight 6:26 AM CDT 7:02 PM CDT
Astronomical Twilight 5:53 AM CDT 7:35 PM CDT
Moon 4:19 PM CDT (10/26) 4:21 AM CDT (10/26)
Length of Visible Light 11h 28m
Length of Day
10h 28m
Waxing Gibbous, 91% of the Moon is Illuminated
Oct 26
Waxing Gibbous
Oct 29
Full
Nov 6
Last Quarter
Nov 13
New
Nov 20
First Quarter

Hourly Weather History & Observations

Time (CDT) Temp. Windchill Dew Point Humidity Pressure Visibility Wind Dir Wind Speed Gust Speed Precip Events Conditions
12:55 AM 33.8 °F 25.8 °F 26.6 °F 75% 30.14 in 10.0 mi WNW 10.4 mph - N/A   Scattered Clouds
1:55 AM 32.5 °F 25.5 °F 26.2 °F 78% 30.17 in 10.0 mi West 8.1 mph - N/A   Clear
2:55 AM 35.6 °F 28.6 °F 26.6 °F 70% 30.19 in 10.0 mi West 9.2 mph - N/A   Mostly Cloudy
3:55 AM 35.6 °F 27.5 °F 26.6 °F 70% 30.19 in 10.0 mi WNW 11.5 mph - N/A   Mostly Cloudy
4:55 AM 32.0 °F 25.6 °F 24.8 °F 75% 30.21 in 10.0 mi West 6.9 mph - N/A   Partly Cloudy
5:55 AM 32.0 °F 27.5 °F 24.8 °F 75% 30.25 in 10.0 mi WSW 4.6 mph - N/A   Clear
6:55 AM 28.4 °F 20.4 °F 23.0 °F 80% 30.28 in 10.0 mi West 8.1 mph - N/A   Clear
7:55 AM 30.2 °F 22.6 °F 24.8 °F 80% 30.30 in 10.0 mi West 8.1 mph - N/A   Clear
8:55 AM 35.6 °F 28.0 °F 26.6 °F 70% 30.33 in 10.0 mi West 10.4 mph - N/A   Clear
9:55 AM 37.4 °F 28.9 °F 28.4 °F 70% 30.35 in 10.0 mi West 13.8 mph - N/A   Unknown
10:55 AM 41.0 °F 33.1 °F 26.6 °F 57% 30.37 in 10.0 mi NW 15.0 mph - N/A   Scattered Clouds
12:55 PM 42.8 °F 36.2 °F 24.8 °F 49% 30.35 in 10.0 mi WNW 12.7 mph - N/A   Mostly Cloudy
1:55 PM 44.6 °F 38.8 °F 26.6 °F 49% 30.33 in 10.0 mi West 11.5 mph 19.6 mph N/A   Scattered Clouds
2:55 PM 44.6 °F 39.7 °F 26.6 °F 49% 30.32 in 10.0 mi WNW 9.2 mph - N/A   Scattered Clouds
3:55 PM 42.8 °F 36.2 °F 24.8 °F 49% 30.33 in 10.0 mi WNW 12.7 mph - N/A   Scattered Clouds
4:55 PM 41.0 °F 37.1 °F 24.8 °F 53% 30.33 in 10.0 mi WNW 5.8 mph - N/A   Scattered Clouds
5:55 PM 37.4 °F 32.1 °F 24.8 °F 60% 30.35 in 10.0 mi West 6.9 mph - N/A   Mostly Cloudy
6:55 PM 37.4 °F 31.4 °F 24.8 °F 60% 30.36 in 10.0 mi West 8.1 mph - N/A   Overcast
7:55 PM 35.6 °F 29.9 °F 24.8 °F 65% 30.37 in 10.0 mi West 6.9 mph - N/A   Overcast
8:55 PM 35.6 °F 28.6 °F 24.8 °F 65% 30.37 in 10.0 mi WNW 9.2 mph - N/A   Unknown
9:55 PM 35.6 °F 28.6 °F 24.8 °F 65% 30.37 in 10.0 mi WNW 9.2 mph - N/A   Unknown
10:55 PM 30.6 °F 27.1 °F 23.0 °F 74% 30.38 in 10.0 mi NW 3.5 mph - N/A   Partly Cloudy
11:55 PM 28.2 °F - 23.5 °F 83% 30.37 in 10.0 mi Calm Calm - N/A   Mostly Cloudy